User: anonymous   Login
Location: Brno
(49.2000°N, 16.6330°E)
Time: 04:22:31
(UTC+02:00)
Language:

RESURS DK-1 - Orbit

View from above orbital plane
View from above orbital plane
View from above satellite
View from above satellite

Ground track
Ground track

The orbit data is extracted from the following two-line orbital elements,

1 29228U 06021A   16178.78816088  .00000088  00000-0  14121-4 0  9990
2 29228  69.9367 282.1407 0005699 194.9541 316.5224 15.01929898554730
Epoch (UTC): 26 June 2016 18:54:57
Eccentricity: 0.0005699
inclination: 69.9367°
perigee height: 557 km
apogee height: 565 km
right ascension of ascending node: 282.1407°
argument of perigee: 194.9541°
revolutions per day: 15.01929898
mean anomaly at epoch: 316.5224°
orbit number at epoch: 55473

The dashed part of the orbit path shows where the satellite is in the earth's shadow,  

DLR